Tracking 20475 objects as of 27-Feb-2020
HD Live streaming from Space Station
objects crossing your sky now

TITAN 34B R/B

Track TITAN 34B R/B now!


NORAD ID: 15227
Int'l Code: 1984-091B
Perigee: 1,236.6 km
Apogee: 38,161.4 km
Inclination: 63.3 °
Period: 698.2 minutes
Semi major axis: 26069 km
RCS: Unknown
Launch date: August 28, 1984
Source: United States (US)
Launch site: AIR FORCE WESTERN TEST RANGE (AFWTR)

Note: This is a ROCKET BODY
aabbcc
Your satellite tracking list
Your tracking list is empty




NASA's NSSDC Master Catalog

Two Line Element Set (TLE):
1 15227U 84091B   20054.36303778 +.00000416 +00000-0 +12867-1 0  9993
2 15227 063.2831 233.5553 7081854 270.0051 016.2201 02.06248806006875
Source of the keplerian elements: AFSPC